Location: Milano
(45.4670°N, 9.2000°E)
Time: 19:54:43
(UTC+02:00)

ISS - Pass Details

Date: 22 May 2021
Orbit: 417 x 422 km, 51.6° (Epoch: 14 June)

Event Time Altitude Azimuth Distance (km) Brightness Sun altitude
Rises 22:56:35 0° 292° (WNW) 2,366 1.0 -16.4°
Reaches altitude 10° 22:58:52 10° 304° (NW) 1,503 0.1 -16.6°
Maximum altitude 23:01:51 28° 6° (N) 816 -1.8 -16.9°
Drops below altitude 10° 23:04:50 10° 68° (ENE) 1,504 -1.1 -17.2°
Enters shadow 23:05:10 - 71° (ENE) 1,619 -0.9 -17.2°
